Regional Weather Roundup
Issued by NWS Upton, NY

Current Version | Previous Version | Graphics & Text | Print | Product List | Glossary Off
Versions: 1 2 3 4 5 6 7 8 9 10 11 12 13 14 15 16 17 18 19 20 21 22 23 24 25 26 27 28 29 30 31 32 33 34 35 36 37 38 39 40 41 42 43 44 45 46 47 48 49 50

103
ASUS41 KOKX 240508
RWROKX

REGIONAL WEATHER ROUNDUP
NATIONAL WEATHER SERVICE NEW YORK NY
100 AM EDT MON APR 24 2017

NOTE: "FAIR" INDICATES FEW OR NO CLOUDS BELOW 12,000 FEET WITH NO
SIGNIFICANT WEATHER AND/OR OBSTRUCTIONS TO VISIBILITY.

NYZ071-072-176-178-NJZ106-104-240600-
NEW YORK CITY METRO AREA

CITY           SKY/WX    TMP DP  RH WIND       PRES   REMARKS
Central Park   MOCLDY    51  40  65 CALM      30.16R
Wall St Helipt PTCLDY    51  43  74 W3        30.15S
Bronx Bot Gard   N/A     48  39  71 E2        30.15R
LaGuardia APRT MOCLDY    53  40  61 SW7       30.13S
Kennedy INTL   MOCLDY    49  47  93 S7        30.15S
Breezy Point     N/A     48 N/A N/A SW5         N/A
Newark/Liberty MOCLDY    51  42  71 SE3       30.13S
Teterboro      PTCLDY    50  43  77 CALM      30.13R
$$

NYZ177-179-078>081-240600-
LONG ISLAND NEW YORK

CITY           SKY/WX    TMP DP  RH WIND       PRES   REMARKS
Jones Beach      N/A     48 N/A N/A SW5         N/A
Matinecock PT    N/A     48 N/A N/A CALM        N/A
Farmingdale    PTCLDY    47  45  93 SW3       30.14S
MacArthur/ISP  MOCLDY    46  43  89 CALM      30.14R
Shirley        PTCLDY    42  40  92 CALM      30.15S
Mt Sinai Harb    N/A     45 N/A N/A MISG        N/A
Westhampton    MOCLDY    38  36  92 CALM      30.17R
East Hampton     N/A     41  39  94 CALM      30.15R
Montauk          N/A     46  44  93 CALM      30.17R
$$

NYZ052-065-067-240600-
HUDSON VALLEY

CITY           SKY/WX    TMP DP  RH WIND       PRES   REMARKS
White Plains   CLOUDY    44  41  89 CALM      30.12S
Larchmont Harb   N/A     48 N/A N/A SE5         N/A
Croton O-T Hud   N/A     48 N/A N/A SE1         N/A
Newburgh       CLEAR     59  39  47 CALM      30.10S
Montgomery     PTCLDY    48  41  76 CALM      30.09S
Poughkeepsie   CLEAR     50  40  68 CALM      30.10R
Albany         MOCLDY    47  37  68 CALM      30.08R
$$

NJZ001-105-106-008-010-013-015-019>022-104-240600-
NEW JERSEY

CITY           SKY/WX    TMP DP  RH WIND       PRES   REMARKS
Newark/Liberty MOCLDY    51  42  71 SE3       30.13S
Teterboro      PTCLDY    50  43  77 CALM      30.13R
Caldwell       PTCLDY    51  42  71 CALM      30.13S
Somerville     CLOUDY    47  43  86 CALM      30.11F
Linden           N/A     50  41  69 CALM      30.14R
Sussex         CLEAR     48  40  73 CALM      30.11S
Andover          N/A     48  43  82 CALM      30.11S
Trenton        CLOUDY    49  44  83 CALM      30.13S
Millville      CLOUDY    48  48 100 E5        30.12S
Atlantic City  MOCLDY    47  44  90 CALM      30.12F
Wrightstown    CLOUDY    46  44  93 CALM      30.11S
Toms River     CLOUDY    43  42  97 CALM      30.14F
Belmar         CLOUDY    47  44  90 S5        30.14F
$$

PAZ047>061-062-071-240600-
EASTERN PENNSYLVANIA

CITY           SKY/WX    TMP DP  RH WIND       PRES   REMARKS
Philadelphia   CLOUDY    51  45  79 CALM      30.13F
Allentown      CLEAR     53  43  68 S5        30.11S
Scranton       CLEAR     50  36  58 CALM      30.09R
$$

CTZ002-004>006-009-010-012-RIZ004-006-007-MAZ004-011-015-240600-
SOUTHERN NEW ENGLAND
 IN CT

CITY           SKY/WX    TMP DP  RH WIND       PRES   REMARKS
Bradley INTL   PTCLDY    46  40  79 S10       30.12R
Hartford       CLEAR     46  40  79 S6        30.13S
Danbury        PTCLDY    45  40  82 CALM      30.14R
Wtrbury/Oxford PTCLDY    45  36  70 SW3       30.14S
Bridgeport     CLOUDY    50  43  77 SW6       30.15R
Meriden        PTCLDY    43  39  86 S3        30.14R
New Haven      PTCLDY    47  42  83 SW3       30.15R
Chester          N/A     45  39  81 VRB5      30.14S
Groton         CLOUDY    45  41  86 SW6       30.15R
Wilimantic     CLEAR     46  40  79 CALM      30.14S

 IN RI

CITY           SKY/WX    TMP DP  RH WIND       PRES   REMARKS
Providence     CLOUDY    43  40  89 S5        30.14S
Block Island   PTCLDY    44  43  96 SW8       30.15F
Westerly       CLOUDY    46  43  89 SW5       30.16R
 IN MA

CITY           SKY/WX    TMP DP  RH WIND       PRES   REMARKS
Boston         PTCLDY    47  38  71 SW10      30.10S
Worcester      CLEAR     44  37  76 SW12      30.09R
Westfield      CLEAR     46  41  82 S6        30.10R
Provincetown   CLEAR     45  42  89 S14       30.13R
Nantucket      CLOUDY    45  42  89 SW10      30.15S
$$

ANZ330-335-338-340-345-350-353-355-240600-
COASTAL MARINE OBSERVATIONS


STATION/POSITION TIME  SKY/WX   TEMP    WIND        PRES    VSBY  WAVE
                                AIR SEA DIR/SP/G                  HT/PER
                 (UTC)          (F)     (DEG/KT/KT) (MB)    (MI)  (FT/S)
NY HARB ENTRANCE 0350            50 50  210/  8/ 10 1020.8          3/11
20 S FIRE ISLAND 0450            48 48  160/  8/ 10 1020.5          3/12
GREAT SOUTH BAY  0430            49 56  230/  8/ 10   N/A
23 SSW MONTAUK P 0350            46 46              1021.4          3/11
15 E BARNEGAT LI 0430               51                N/A           4/11
HUDSON CANYON    0350            47 48  100/  6/  6 1021.1          4/12
KINGS POINT      0442            49 49  200/  3/  4 1020.4
EXECUTION ROCKS  NOT AVBL
CENTRAL LI SOUND 0445            47     220/  4/  6   N/A           1
EASTERN LI SOUND NOT AVBL
ROBBINS REEF     0448            51     180/  3/  3 1020.8
$$


>>>>>>>>>>>>>>>>>>>>>>>>>>>> KEY <<<<<<<<<<<<<<<<<<<<<<<<<<<
>                                                          <
>     SKY/WX - Sky Condition/Present Weather               <
>     TMP    - Temperature in Fahrenheit                   <
>     DP     - Dew Point in Fahrenheit                     <
>     RH     - Relative Humidity in Percent                <
>     WIND   - Direction (from) and Speed in MPH           <
>     PRES   - Mean Sea Level Pressure (inches of Hg)      <
>     WCI    - Wind Chill Index                            <
>     VSB    - VISIBILITY IN MILES                         <
>     HX     - HEAT INDEX                                  <
>     TC     - TEMPERATURE IN CELSIUS                      <
>     VRB    - VARIABLE WIND DIRECTION                     <
>                                                          <
>>>>>>>>>>>>>>>>>>>>>>>>>>>> KEY <<<<<<<<<<<<<<<<<<<<<<<<<<<




USA.gov is the U.S. government's official web portal to all federal, state and local government web resources and services.